Showing default

STPSAT-5, 43762

Orbit data source: Space-Track

STPSAT-5, 43762 is a payload satellite owned by USAF STP (US) in SSO that was launched on Mon, 03 Dec 2018 UTC via an FALCON 9 launch vehicle from the Air Force Western Test Range (AFWTR). Payload-class satellites include a variety of spacecraft equipped with specific instruments for various scientific and technological missions. These include communications satellites like Starlink; space stations such as the ISS; scientific satellites like the Hubble; Earth observation satellites from companies like Planet Labs, Umbra, and HawkEye 360; GPS; miniature CubeSats for education and research; and military/defense satellites.

Loading next visibility...
Identifier
43762, 2018-099E
Orbit
SSO
Country
Flag of USUS
Related business
Manufacturer
SNC Louisville
Mission
Operational Defense Technology
Bus & Motor
SN-50, Unknown motor
Mass
~110 kg wet, ~100 kg dry
Launch date (UTC)
2018-12-03 (7 years ago)
Launch vehicle
FALCON 9
Launch site
Air Force Western Test Range (AFWTR)
Object type
Payload
Rocket body
Debris
Shape & HBR
Oct Cyl + 2 Pan, 1.0 m
Radar Cross Section
0.541 m², Medium (>0.1 m² and < 1m²)

Expand to show TLE details & history
Last TLE update: 10 hours ago

TLE from 10 hours ago
0 STPSAT-5
1 43762U 18099E   26034.57429484  .00005899  00000-0  34392-3 0  9992
2 43762  97.4291  87.9827 0004717  82.5838 277.5928 15.12335201392669
Epoch: 2026-02-03T13:46Z
TLE epoch observation values (Epoch: 2026-02-03T13:46:59.074Z)
Latitude
-0.00008°
Longitude
107.48329°
Altitude
531.731 km
Speed
7.597 km/s
True Right ascension
05h 51m 55s
True Declination
0° 00' 00"
Sunlit
Object was in full shadow at epoch
Visualization orbit readout
Latitude
Unknown
Longitude
Unknown
Altitude
Unknown
Speed
Unknown
Apparent Right ascension
Unknown
Apparent Declination
Unknown
Sunlit
N/A
Visualization observer readout
Local Sidereal Time
02:04:04
Azimuth
Unknown
Elevation
Unknown
Doppler factor
Unknown
Orbital elements
Apogee altitude
529.314 km
Perigee altitude
522.801 km
Semi-major axis
6,904.195 km
Eccentricity
0.00047
Inclination
97.4291°
RAAN
87.9827°
Arg. of periapsis
82.5838°
True anomaly
277.53922°
Mean anomaly
277.5928°
Eccentric anomaly
277.56601°
Mean motion
3.78332 °/min
Orbital period
95.15 mins
BSTAR
0.00034392
Loading maneuver chart data...
Computing Atmospheric mass density...
Loading historical data...
Loading historical data...
Loading historical data...
Loading historical data...
Loading historical data...
Loading historical data...
Loading historical data...

Documentation

Showing up to 5 results
|